Showing default

COSMOS 1994, 19785

Orbit data source: Space-Track

COSMOS 1994, 19785 is a payload satellite owned by UNKS (CIS) in LEO that was launched on Fri, 10 Feb 1989 UTC via a TSIKLON-3 launch vehicle from the Plesetsk Missile And Space Complex (PKMTR). Payload-class satellites include a variety of spacecraft equipped with specific instruments for various scientific and technological missions. These include communications satellites like Starlink; space stations such as the ISS; scientific satellites like the Hubble; Earth observation satellites from companies like Planet Labs, Umbra, and HawkEye 360; GPS; miniature CubeSats for education and research; and military/defense satellites.

Loading next visibility...
Identifier
19785, 1989-009A
Orbit
LEO
Country
Flag of CISCIS
Related business
Manufacturer
NPO PM
Mission
Defense Communications
Bus & Motor
STRELA-3, Unknown motor
Mass
225 kg wet, 225 kg dry
Launch date (UTC)
1989-02-10 (37 years ago)
Launch vehicle
TSIKLON-3
Launch site
Plesetsk Missile And Space Complex (PKMTR)
Object type
Payload
Rocket body
Debris
Shape & HBR
Cyl, 0.8 m
Radar Cross Section
1.257 m², Large (>1 m²)

Expand to show TLE details & history
Last TLE update: 7 hours ago

TLE from 7 hours ago
0 COSMOS 1994
1 19785U 89009A   25291.14355817  .00000038  00000-0  14594-3 0  9996
2 19785  82.6200 145.9403 0013286 137.7965 346.9056 12.64335717692799
Epoch: 2025-10-18T03:26Z
TLE epoch observation values (Epoch: 2025-10-18T03:26:43.425Z)
Latitude
54.74409°
Longitude
-123.12457°
Altitude
1,404.012 km
Speed
7.168 km/s
True Right ascension
21h 01m 44s
True Declination
54° 35' 43"
Sunlit
Object was in daylight at epoch
Visualization orbit readout
Latitude
Unknown
Longitude
Unknown
Altitude
Unknown
Speed
Unknown
Apparent Right ascension
Unknown
Apparent Declination
Unknown
Sunlit
N/A
Visualization observer readout
Local Sidereal Time
05:07:27
Azimuth
Unknown
Elevation
Unknown
Doppler factor
Unknown
Orbital elements
Apogee altitude
1,412.753 km
Perigee altitude
1,392.079 km
Semi-major axis
7,780.553 km
Eccentricity
0.00133
Inclination
82.62°
RAAN
145.9403°
Arg. of periapsis
137.7965°
True anomaly
346.87105°
Mean anomaly
346.9056°
Eccentric anomaly
346.88833°
Mean motion
3.16248 °/min
Orbital period
113.83 mins
BSTAR
0.00014594
Loading maneuver chart data...
Computing Atmospheric mass density...
Loading historical data...
Loading historical data...
Loading historical data...
Loading historical data...
Loading historical data...
Loading historical data...
Loading historical data...

Documentation

Showing up to 5 results
|